GW0416 Weather Reports


time (UTC)temp
F
wind
direction
speed
knots
gust
knots
rain 1hr
in
rain 24hr
in
rain mn
in
humidity
%
barometer
mb
20260503013034 63 36 4.3 7.0 0.00 0.00 0.00 38 1015.6
20260503011535 63 22 2.6 7.0 0.00 0.00 0.00 39 1015.9
20260503010036 63 350 5.2 8.7 0.00 0.00 0.00 39 1015.9
20260503004554 63 9 2.6 4.3 0.00 0.00 0.00 38 1015.9
20260503003032 63 330 4.3 8.7 0.00 0.00 0.00 38 1016.2
20260503001530 64 350 6.1 8.7 0.00 0.00 0.00 38 1016.3
20260503000043 65 28 1.7 6.1 0.00 0.00 0.00 36 1016.3
20260502234532 66 336 2.6 9.6 0.00 0.00 0.00 36 1016.4
20260502233029 66 5 4.3 8.7 0.00 0.00 0.00 35 1016.5
20260502231533 64 0 0.9 8.7 0.00 0.00 0.00 39 1016.8
20260502230032 63 314 5.2 8.7 0.00 0.00 0.00 39 1017.0
20260502224532 64 350 7.8 10.4 0.00 0.00 0.00 38 1017.2
20260502223031 65 36 4.3 10.4 0.00 0.00 0.00 37 1017.3
20260502221530 63 330 4.3 10.4 0.00 0.00 0.00 39 1017.5
20260502220033 63 264 0.9 10.4 0.00 0.00 0.00 39 1017.8
20260502214528 63 5 6.1 11.3 0.00 0.00 0.00 40 1018.1
20260502213039 64 76 4.3 12.2 0.00 0.00 0.00 38 1018.1
20260502211536 63 34 2.6 9.6 0.00 0.00 0.00 40 1018.2
20260502210032 62 288 4.3 13.0 0.00 0.00 0.00 41 1018.6
20260502204530 63 36 7.0 14.8 0.00 0.00 0.00 40 1018.7
20260502203030 62 63 4.3 13.0 0.00 0.00 0.00 41 1018.7
20260502201533 61 360 5.2 13.0 0.00 0.00 0.00 42 1018.8
20260502200034 60 50 6.1 13.0 0.00 0.00 0.00 44 1019.1
20260502194536 60 42 7.8 14.8 0.00 0.00 0.00 45 1019.4
20260502193039 60 31 7.8 16.5 0.00 0.00 0.00 45 1019.4
20260502191532 60 340 8.7 14.8 0.00 0.00 0.00 45 1019.5
20260502190042 59 5 10.4 17.4 0.00 0.00 0.00 45 1019.7
20260502184530 60 37 9.6 16.5 0.00 0.00 0.00 44 1019.6
20260502183030 59 30 7.0 13.9 0.00 0.00 0.00 46 1019.8
20260502181537 59 5 8.7 15.6 0.00 0.00 0.00 46 1019.8
20260502163038 59 34 13.0 19.1 0.00 0.00 0.00 45 1019.9
20260502161531 59 38 13.9 21.7 0.00 0.00 0.00 46 1020.0
20260502151555 58 45 12.2 18.2 0.00 0.00 0.00 46 1019.5
20260502123035 45 33 10.4 13.0 0.00 0.00 0.00 62 1018.6
20260502121533 44 30 10.4 13.0 0.00 0.00 0.00 63 1018.5
20260502114531 44 15 10.4 14.8 0.00 0.00 0.00 62 1018.2
20260502113040 45 9 10.4 16.5 0.00 0.00 0.00 58 1018.0
20260502111528 47 17 13.9 18.2 0.00 0.00 0.00 58 1017.6
20260502110035 46 25 10.4 14.8 0.00 0.00 0.00 56 1017.4
20260502104531 48 16 11.3 15.6 0.00 0.00 0.00 53 1017.3
20260502103030 49 43 10.4 15.6 0.00 0.00 0.00 51 1016.9
20260502101530 49 51 12.2 18.2 0.00 0.00 0.00 51 1016.6
20260502091530 49 17 8.7 11.3 0.00 0.00 0.00 48 1016.2
20260502071531 53 348 6.1 8.7 0.00 0.00 0.00 37 1015.4
20260502070044 50 360 4.3 7.8 0.00 0.00 0.00 40 1015.5
20260502064530 51 342 5.2 8.7 0.00 0.00 0.00 39 1015.5
20260502063040 52 5 7.0 9.6 0.00 0.00 0.00 37 1015.4
20260502061532 52 5 7.8 10.4 0.00 0.00 0.00 37 1015.3
20260502060031 52 26 7.0 8.7 0.00 0.00 0.00 37 1015.2
20260502054535 56 355 8.7 10.4 0.00 0.00 0.00 34 1015.3
20260502053031 56 346 7.8 10.4 0.00 0.00 0.00 34 1015.2
20260502051530 55 323 4.3 7.0 0.00 0.00 0.00 35 1015.2
20260502050037 51 346 3.5 7.0 0.00 0.00 0.00 36 1015.2
20260502044530 54 312 6.1 8.7 0.00 0.00 0.00 34 1015.1
20260502043031 53 302 3.5 7.0 0.00 0.00 0.00 34 1015.1
20260502041531 55 314 4.3 7.0 0.00 0.00 0.00 32 1015.1
20260502040030 58 315 3.5 8.7 0.00 0.00 0.00 28 1015.0
20260502034528 59 337 5.2 9.6 0.00 0.00 0.00 27 1015.0
20260502033031 60 309 6.1 9.6 0.00 0.00 0.00 26 1015.0
20260502031532 60 339 7.0 9.6 0.00 0.00 0.00 26 1014.8
20260502030031 64 298 4.3 7.8 0.00 0.00 0.00 21 1014.6
20260502024532 66 300 3.5 8.7 0.00 0.00 0.00 21 1014.3
20260502023030 69 319 4.3 10.4 0.00 0.00 0.00 20 1014.2
20260502021528 69 236 5.2 8.7 0.00 0.00 0.00 21 1014.2
20260502020032 69 337 0.0 2.6 0.00 0.00 0.00 23 1014.2
20260502014535 71 0 0.0 0.0 0.00 0.00 0.00 22 1014.2